Fort Collins, CO

9:54 AM MDT on September 25, 2017 (GMT -0600)
Fort Collins-Loveland Municipal

Weather History for KFNL - July, 2014

Change the Weather History Date:

Thursday, July 24, 2014

  Actual Average Record
Temperature  
Mean Temperature 79 °F -  
Max Temperature 98 °F - 102 °F (2003)
Min Temperature 60 °F - 50 °F (2004)
Degree Days  
Heating Degree Days 0    
Month to date heating degree days  
Cooling Degree Days 14    
Month to date cooling degree days  
Growing Degree Days 29 (Base 50)    
Moisture  
Dew Point 53 °F    
Average Humidity 47    
Maximum Humidity 77    
Minimum Humidity 19    
Precipitation  
Precipitation 0.00 in - 0.32 in (2013)
Sea Level Pressure  
Sea Level Pressure 30.07 in    
Wind  
Wind Speed 6 mph (ESE)    
Max Wind Speed 17 mph    
Max Gust Speed 22 mph    
Visibility 10 miles    
Events Thunderstorm    
T = Trace of Precipitation, MM = Missing Value Source: NWS Daily Summary

Daily Weather History Graph

Daily Weather History Graph

Search for Another Location

Airport or City:

Trip Planner

Search our weather history database for the weather conditions in past years. The results will help you decide how hot, cold, wet, or windy it might be!

Date:

Astronomy

Jul. 24, 2014 Rise Set
Actual Time 5:50 AM MDT 8:22 PM MDT
Civil Twilight 5:18 AM MDT 8:53 PM MDT
Nautical Twilight 4:39 AM MDT 9:32 PM MDT
Astronomical Twilight 3:55 AM MDT 10:16 PM MDT
Moon 4:00 AM MDT (7/24) 6:39 PM MDT (7/24)
Length of Visible Light 15h 35m
Length of Day
14h 32m
Waning Crescent, 4% of the Moon is Illuminated
Jul 24
Waning Crescent
Jul 26
New
Aug 3
First Quarter
Aug 10
Full
Aug 17
Last Quarter

Hourly Weather History & Observations

Time (MDT) Temp. Heat Index Dew Point Humidity Pressure Visibility Wind Dir Wind Speed Gust Speed Precip Events Conditions
12:15 AM 66.2 °F - 53.6 °F 64% 30.16 in 10.0 mi NW 5.8 mph - N/A   Clear
12:35 AM 64.4 °F - 53.6 °F 68% 30.16 in 10.0 mi NNW 5.8 mph - N/A   Clear
12:55 AM 66.2 °F - 53.6 °F 64% 30.16 in 10.0 mi North 8.1 mph - N/A   Clear
1:15 AM 64.4 °F - 53.6 °F 68% 30.17 in 10.0 mi NNE 3.5 mph - N/A   Clear
1:35 AM 62.6 °F - 51.8 °F 68% 30.17 in 10.0 mi NNE 5.8 mph - N/A   Partly Cloudy
1:55 AM 62.6 °F - 53.6 °F 72% 30.18 in 10.0 mi Calm Calm - N/A   Partly Cloudy
2:15 AM 60.8 °F - 51.8 °F 72% 30.16 in 10.0 mi NW 5.8 mph - N/A   Clear
2:35 AM 62.6 °F - 53.6 °F 72% 30.15 in 10.0 mi WNW 4.6 mph - N/A   Clear
2:55 AM 62.6 °F - 53.6 °F 72% 30.14 in 10.0 mi WNW 6.9 mph - N/A   Clear
3:15 AM 62.6 °F - 51.8 °F 68% 30.13 in 10.0 mi WNW 8.1 mph - N/A   Clear
3:35 AM 64.4 °F - 51.8 °F 64% 30.13 in 10.0 mi Calm Calm - N/A   Clear
3:55 AM 64.4 °F - 51.8 °F 64% 30.12 in 10.0 mi NNE 5.8 mph - N/A   Clear
4:15 AM 64.4 °F - 53.6 °F 68% 30.12 in 10.0 mi ENE 5.8 mph - N/A   Clear
4:35 AM 62.6 °F - 53.6 °F 72% 30.13 in 10.0 mi ENE 4.6 mph - N/A   Clear
4:55 AM 64.4 °F - 53.6 °F 68% 30.13 in 10.0 mi NNE 4.6 mph - N/A   Clear
5:15 AM 64.4 °F - 53.6 °F 68% 30.13 in 10.0 mi NE 4.6 mph - N/A   Clear
5:35 AM 64.4 °F - 53.6 °F 68% 30.12 in 10.0 mi Calm Calm - N/A   Clear
5:55 AM 62.6 °F - 51.8 °F 68% 30.12 in 10.0 mi SSE 3.5 mph - N/A   Clear
6:15 AM 60.8 °F - 53.6 °F 77% 30.12 in 10.0 mi South 6.9 mph - N/A   Clear
6:35 AM 60.8 °F - 53.6 °F 77% 30.13 in 10.0 mi Calm Calm - N/A   Clear
6:55 AM 62.6 °F - 53.6 °F 72% 30.13 in 10.0 mi South 3.5 mph - N/A   Clear
7:15 AM 64.4 °F - 55.4 °F 73% 30.12 in 10.0 mi Calm Calm - N/A   Clear
7:35 AM 68.0 °F - 53.6 °F 60% 30.12 in 10.0 mi SSW 3.5 mph - N/A   Clear
7:55 AM 71.6 °F - 53.6 °F 53% 30.12 in 10.0 mi Calm Calm - N/A   Clear
8:15 AM 73.4 °F - 53.6 °F 50% 30.12 in 10.0 mi Calm Calm - N/A   Clear
8:35 AM 75.2 °F - 53.6 °F 47% 30.11 in 10.0 mi Calm Calm - N/A   Clear
8:55 AM 77.0 °F - 55.4 °F 47% 30.11 in 10.0 mi SSW 4.6 mph - N/A   Clear
9:15 AM 78.8 °F - 51.8 °F 39% 30.10 in 10.0 mi Calm Calm - N/A   Clear
9:35 AM 80.6 °F 80.3 °F 53.6 °F 39% 30.10 in 10.0 mi SSE 3.5 mph - N/A   Clear
9:55 AM 82.4 °F 81.4 °F 53.6 °F 37% 30.09 in 10.0 mi SSW 5.8 mph - N/A   Clear
10:15 AM 84.2 °F 83.0 °F 55.4 °F 37% 30.09 in 10.0 mi SE 3.5 mph - N/A   Clear
10:35 AM 87.8 °F 86.1 °F 55.4 °F 33% 30.08 in 10.0 mi South 5.8 mph - N/A   Clear
10:55 AM 89.6 °F - 50.0 °F 26% 30.07 in 10.0 mi South 6.9 mph - N/A   Clear
11:15 AM 91.4 °F - 51.8 °F 26% 30.06 in 10.0 mi SSE 5.8 mph - N/A   Clear
11:35 AM 91.4 °F - 51.8 °F 26% 30.05 in 10.0 mi SSW 6.9 mph - N/A   Clear
11:55 AM 93.2 °F - 51.8 °F 24% 30.04 in 10.0 mi WNW 4.6 mph - N/A   Clear
12:15 PM 96.8 °F - 50.0 °F 20% 30.04 in 10.0 mi Calm Calm - N/A   Clear
12:35 PM 95.0 °F - 48.2 °F 20% 30.02 in 10.0 mi West 6.9 mph - N/A   Clear
12:55 PM 96.8 °F 95.1 °F 55.4 °F 25% 30.02 in 10.0 mi NNE 8.1 mph - N/A   Clear
1:15 PM 96.8 °F 95.1 °F 55.4 °F 25% 30.02 in 10.0 mi NNE 10.4 mph - N/A   Clear
1:35 PM 98.6 °F 96.4 °F 53.6 °F 22% 30.01 in 10.0 mi West 3.5 mph - N/A   Clear
1:55 PM 96.8 °F - 48.2 °F 19% 30.01 in 10.0 mi WSW 5.8 mph - N/A   Clear
2:15 PM 93.2 °F - 48.2 °F 21% 30.00 in 10.0 mi West 8.1 mph - N/A   Clear
2:35 PM 93.2 °F - 48.2 °F 21% 30.01 in 10.0 mi NW 17.3 mph 21.9 mph N/A Thunderstorm Clear
2:55 PM 87.8 °F - 51.8 °F 29% 30.02 in 10.0 mi North 11.5 mph - N/A Thunderstorm Clear
3:15 PM 86.0 °F - 51.8 °F 31% 30.04 in 10.0 mi SE 13.8 mph - N/A Thunderstorm Partly Cloudy
3:35 PM 84.2 °F - 51.8 °F 33% 30.04 in 10.0 mi North 3.5 mph - N/A   Partly Cloudy
3:55 PM 87.8 °F 86.1 °F 55.4 °F 33% 30.04 in 10.0 mi ENE 15.0 mph - N/A   Clear
4:15 PM 89.6 °F 87.7 °F 55.4 °F 31% 30.03 in 10.0 mi ENE 13.8 mph - N/A   Clear
4:35 PM 91.4 °F 89.4 °F 55.4 °F 29% 30.02 in 10.0 mi NE 6.9 mph - N/A   Clear
4:55 PM 91.4 °F 89.1 °F 53.6 °F 28% 30.01 in 10.0 mi NE 8.1 mph - N/A   Clear
5:15 PM 89.6 °F 87.3 °F 53.6 °F 29% 30.00 in 10.0 mi ENE 8.1 mph - N/A   Clear
5:35 PM 89.6 °F 87.3 °F 53.6 °F 29% 29.99 in 7.0 mi NE 4.6 mph - N/A   Clear
5:55 PM 89.6 °F 87.3 °F 53.6 °F 29% 29.98 in 10.0 mi NE 6.9 mph - N/A   Clear
6:15 PM 89.6 °F 87.3 °F 53.6 °F 29% 29.98 in 10.0 mi NNE 8.1 mph - N/A   Clear
6:35 PM 89.6 °F 87.7 °F 55.4 °F 31% 29.98 in 10.0 mi ENE 5.8 mph - N/A   Clear
6:55 PM 87.8 °F 85.7 °F 53.6 °F 31% 29.98 in 10.0 mi ENE 5.8 mph - N/A   Clear
7:15 PM 84.2 °F 83.0 °F 55.4 °F 37% 29.99 in 6.0 mi East 5.8 mph - N/A   Clear
7:35 PM 82.4 °F 82.0 °F 57.2 °F 42% 30.00 in 10.0 mi SSE 5.8 mph - N/A   Clear
7:55 PM 80.6 °F 81.1 °F 59.0 °F 48% 30.00 in 10.0 mi ESE 8.1 mph - N/A   Clear
8:15 PM 80.6 °F 80.8 °F 57.2 °F 45% 30.02 in 10.0 mi SE 5.8 mph - N/A   Clear
8:35 PM 75.2 °F - 57.2 °F 53% 30.03 in 10.0 mi SSE 6.9 mph - N/A   Clear
8:55 PM 75.2 °F - 55.4 °F 50% 30.04 in 10.0 mi SSE 5.8 mph - N/A   Clear
9:15 PM 75.2 °F - 55.4 °F 50% 30.05 in 10.0 mi South 10.4 mph - N/A   Clear
9:35 PM 75.2 °F - 55.4 °F 50% 30.05 in 10.0 mi SSE 9.2 mph - N/A   Clear
9:55 PM 75.2 °F - 55.4 °F 50% 30.05 in 10.0 mi South 17.3 mph - N/A   Clear
10:15 PM 77.0 °F - 53.6 °F 44% 30.05 in 10.0 mi South 16.1 mph - N/A   Clear
10:35 PM 75.2 °F - 53.6 °F 47% 30.06 in 10.0 mi SSE 11.5 mph - N/A   Clear
10:55 PM 75.2 °F - 53.6 °F 47% 30.06 in 10.0 mi South 9.2 mph - N/A   Clear
11:15 PM 73.4 °F - 53.6 °F 50% 30.05 in 10.0 mi South 10.4 mph 17.3 mph N/A   Clear
11:35 PM 73.4 °F - 53.6 °F 50% 30.05 in 10.0 mi South 9.2 mph - N/A   Clear
11:55 PM 71.6 °F - 53.6 °F 53% 30.05 in 10.0 mi South 8.1 mph - N/A   Clear